Theta_e
316 314 310 310 316 318 326 330 330 331 335 334 335 343 349 355 352 348 346 349 361 364 364 365 364 363 363 363 363 363 362 360
311 311 316 315 316 317 320 328 331 332 332 339 343 346 353 355 351 348 345 347 361 364 364 364 364 363 363 363 363 362 361 359
308 311 316 318 318 317 316 326 328 331 331 336 344 352 357 352 350 346 345 350 359 363 363 363 363 363 363 362 362 361 360 359
306 309 314 317 319 318 316 320 328 329 328 336 349 352 352 350 350 347 346 351 354 362 362 362 362 362 361 361 360 361 359 359
308 309 311 313 319 319 318 317 325 332 327 338 346 353 356 355 353 349 347 348 349 351 358 362 362 361 361 360 360 360 359 359
309 308 308 315 316 320 322 319 333 335 325 332 346 354 356 355 352 350 347 347 345 347 348 349 352 360 360 360 360 359 359 359
308 308 310 316 314 319 324 325 325 330 337 342 351 354 352 351 351 349 345 346 345 343 344 345 346 353 358 357 358 358 357 357
313 313 312 314 314 316 316 322 325 329 344 345 350 350 349 349 346 347 344 343 343 345 345 344 343 352 349 349 349 348 347 352
312 314 314 313 314 317 316 317 324 326 334 342 346 346 347 348 349 346 345 344 344 348 354 345 344 348 344 346 347 349 353 355
314 313 313 312 316 314 317 320 328 331 338 340 343 343 345 344 346 345 343 345 345 349 356 354 348 348 346 345 348 349 352 357
313 313 313 315 313 314 316 322 329 327 330 337 341 344 346 345 343 346 343 345 346 351 356 357 356 349 350 348 348 351 353 356
312 312 313 311 312 314 315 322 324 323 326 333 338 342 344 343 343 346 346 347 348 350 360 358 360 362 352 352 353 352 352 354
312 312 311 314 309 311 316 320 319 320 322 327 336 342 343 344 347 351 350 350 350 352 356 360 359 358 357 353 352 351 352 359
312 312 312 312 305 312 316 317 315 317 318 321 328 336 344 347 350 353 354 354 354 351 352 358 358 357 353 353 357 352 353 355
308 313 311 310 306 312 317 316 315 317 318 318 321 327 338 345 346 352 357 356 357 358 353 355 361 356 357 362 354 353 353 354
306 310 310 309 308 312 315 315 315 316 317 318 320 325 330 334 337 346 354 360 362 361 363 363 360 359 354 352 353 354 353 353
308 311 309 308 309 311 315 315 315 315 317 318 319 327 329 332 334 333 343 356 358 359 368 363 356 355 354 351 352 351 352 359
308 311 310 309 309 312 315 315 316 317 319 320 323 326 329 334 336 336 334 338 347 355 363 364 359 361 358 356 352 352 351 357
305 309 310 308 307 310 314 317 318 319 321 322 323 325 328 330 334 337 339 339 338 342 353 364 367 363 363 359 359 350 349 351
306 305 301 309 298 308 312 313 316 318 319 321 323 325 327 328 330 332 336 340 343 342 342 344 362 362 364 353 348 347 348 348
Wind_Speed
10 15 14 7 5 7 8 6 3 5 1 5 7 4 7 17 17 18 17 17 17 13 14 14 15 16 16 15 15 14 14 13
11 19 15 8 8 5 3 7 1 3 12 8 5 3 4 16 18 17 18 17 18 14 13 14 15 15 15 15 15 14 13 12
14 18 11 3 3 3 6 3 7 2 11 6 5 3 14 17 16 17 17 18 17 14 13 14 15 15 14 14 14 14 13 12
14 16 5 1 2 7 8 9 6 8 3 10 11 13 13 13 15 15 16 18 17 14 14 13 15 13 13 13 12 12 12 12
20 15 9 6 2 10 10 11 7 3 6 11 12 13 14 14 14 14 15 17 16 16 13 11 12 12 12 12 12 11 11 11
17 14 6 8 10 4 8 10 10 3 5 15 15 14 13 13 14 15 15 17 16 16 16 14 13 11 11 11 11 11 11 10
17 17 7 6 9 7 5 9 1 9 9 10 16 16 14 12 13 13 13 16 16 16 16 15 15 12 10 10 11 10 10 10
11 7 4 1 6 4 6 14 9 8 11 8 13 14 15 15 14 16 14 15 15 15 16 15 12 14 12 11 10 11 11 12
2 6 7 10 8 7 12 16 14 13 17 12 10 13 14 14 15 16 17 14 15 12 12 14 12 11 8 8 8 8 11 11
14 4 10 16 14 5 14 15 3 9 14 12 11 13 13 12 14 15 16 15 14 14 9 11 9 9 10 9 10 9 10 11
14 10 14 14 12 15 11 18 6 5 3 10 10 12 12 12 12 13 14 13 14 16 13 11 9 9 9 10 9 10 10 11
14 16 16 15 18 17 11 15 7 6 11 10 9 12 10 7 8 11 13 16 16 15 13 13 10 9 9 7 6 7 8 9
16 16 17 14 19 20 15 13 13 13 10 9 13 12 12 8 6 8 9 10 11 12 14 13 13 11 8 8 10 9 9 9
18 18 17 14 18 21 16 15 12 14 12 10 9 14 13 9 6 7 8 11 12 12 14 13 11 10 9 9 3 6 9 9
17 12 14 16 19 18 22 18 11 14 13 11 11 14 2 3 8 8 10 12 11 12 12 14 12 10 11 10 10 9 9 9
16 11 15 17 19 18 9 7 11 16 15 12 9 10 7 6 6 8 10 9 10 11 12 11 10 10 9 10 10 10 9 10
10 15 11 18 18 20 8 9 11 7 8 9 5 8 3 4 2 2 6 7 10 12 10 10 10 11 10 11 10 10 10 11
16 13 11 16 18 15 7 9 5 5 6 7 9 8 6 6 5 4 1 4 7 10 11 11 10 9 9 9 10 11 10 11
17 13 13 16 21 12 10 7 6 5 8 6 6 10 8 10 9 8 8 5 1 6 9 11 12 8 7 8 7 9 11 10
18 14 14 21 17 22 20 18 15 13 12 11 11 10 11 11 11 12 12 10 9 6 5 9 11 11 12 11 11 11 10 11
Wind_Direction
234 246 273 77 135 86 103 123 160 130 263 34 61 27 139 118 146 135 142 154 131 140 139 143 142 142 141 140 138 137 136 137
256 260 269 65 93 23 179 132 131 357 96 116 2 111 113 141 148 139 146 147 132 139 144 145 147 144 145 146 141 140 139 139
236 262 283 94 30 301 284 96 143 190 102 82 115 108 129 150 151 161 149 130 145 140 142 147 151 148 148 148 146 144 142 140
246 232 239 205 334 274 272 274 107 162 249 83 135 150 145 155 157 160 145 132 141 143 143 153 151 153 153 151 147 147 145 146
268 281 189 220 4 254 260 235 161 37 234 105 151 143 153 163 164 150 149 144 154 160 150 147 149 153 157 153 151 149 150 151
259 273 222 110 265 282 260 250 66 50 299 141 140 151 165 174 168 157 159 149 160 163 165 171 165 159 161 159 154 152 156 152
249 247 219 139 249 149 329 288 161 171 38 80 133 161 177 165 167 166 169 152 162 167 167 181 167 165 165 169 159 155 159 155
298 236 283 77 267 261 233 215 175 159 97 125 151 175 177 175 174 172 175 162 166 176 166 184 166 155 188 181 189 191 186 175
324 313 304 292 284 236 258 231 210 193 155 152 168 184 191 185 175 180 174 173 171 183 159 191 180 157 186 187 198 196 195 178
276 217 242 252 257 297 250 257 273 156 124 147 177 181 198 192 172 177 173 175 179 171 164 212 183 178 188 203 193 194 199 191
248 251 247 250 260 251 234 254 81 53 176 161 177 186 204 191 170 175 173 172 192 171 181 203 217 183 207 208 191 200 188 190
241 238 238 239 248 238 248 248 151 215 203 179 186 194 198 200 190 178 174 173 192 180 177 201 213 240 202 211 219 223 204 197
245 242 244 230 245 241 246 209 212 205 230 217 172 190 193 181 215 185 181 183 191 190 178 203 203 213 232 215 220 203 222 196
227 214 227 232 243 232 218 235 212 235 220 215 207 193 198 189 186 199 203 187 190 197 185 192 213 205 225 227 251 245 217 205
258 182 221 207 247 250 203 220 216 238 228 230 214 209 179 115 199 204 196 188 203 209 211 189 202 215 217 225 216 231 218 211
252 173 226 226 237 253 160 215 223 245 250 250 227 86 40 22 343 313 197 209 201 206 217 206 192 210 227 222 223 224 221 219
268 252 199 239 227 244 149 228 228 234 238 239 104 79 88 53 350 288 259 229 215 219 209 210 209 206 212 221 219 219 227 212
258 259 219 248 247 215 154 215 184 186 167 151 151 132 106 88 84 79 111 248 239 237 217 211 220 222 231 216 225 220 220 208
259 252 223 244 246 166 166 171 162 138 120 113 118 118 98 78 68 74 70 50 322 276 267 228 231 226 224 252 240 235 219 206
270 248 243 210 246 189 186 191 182 159 154 138 137 113 96 80 59 60 50 52 43 17 302 262 250 238 248 229 230 222 232 218